Terminal Aerodrome Forecast
Issued by NWS

Home | Current Version | Previous Version | Text Only | Print | Product List | Glossary On
Versions: 1 2 3 4 5 6 7 8 9 10 11 12 13 14 15 16 17 18 19 20 21 22 23 24 25 26 27 28
000
FTUS43 KGLD 202320
TAFMCK
TAF
KMCK 202320Z 2100/2124 18009KT P6SM VCTS BKN100CB
      TEMPO 2100/2104 3SM TSRA BKN090CB
     FM210600 VRB05KT P6SM BKN150
     FM211300 34008KT P6SM FEW250
     FM211800 VRB05KT P6SM SCT100=

USA.gov is the U.S. government's official web portal to all federal, state and local government web resources and services.